Weather history for 0325

Weather History For Prescott AZ

This page updates 5 minutes after midnight. GMT -7

Station: KPRC0 Rows: 26

Return to today's weather
Year Date Temp (°F) Tmin (°F) Tmax (°F) RH% Prcp Snow Wind Gust Pres Sun Cloud
2000 2000-03-25 50.2 35.1 66.0 39 10.9 30.01 2
2001 2001-03-25 55.2 41.0 71.1 34 13.0 29.92 0
2002 2002-03-25 43.3 28.4 57.2 55 8.4 29.94 1
2003 2003-03-25 52.7 37.4 66.2 46 8.0 30.06 0
2004 2004-03-25 58.6 42.8 73.4 37 12.2 29.91 0
2005 2005-03-25 41.0 36.0 51.1 71 15.7 29.90 6
2006 2006-03-25 52.3 34.0 66.9 34 0.0 11.8 29.91 2
2007 2007-03-25 50.9 36.0 66.0 62 0.3 6.9 30.04 1
2008 2008-03-25 55.2 37.0 71.1 25 0.0 9.0 29.97 1
2009 2009-03-25 47.5 30.9 63.0 29 0.0 15.6 29.90 0
2010 2010-03-25 48.6 33.1 63.0 31 0.0 15.1 29.95 0
2011 2011-03-25 45.5 35.1 55.9 42 0.0 11.8 29.84 1
2012 2012-03-25 54.1 44.1 64.9 36 0.0 14.5 29.81 0
2013 2013-03-25 50.4 30.0 66.0 22 0.0 7.7 29.95 0
2014 2014-03-25 54.0 37.0 68.0 26 0.0 11.6 29.83
2015 2015-03-25 55.0 39.0 70.0 33 0.0 14.5 29.99 0
2016 2016-03-25 52.5 35.1 69.1 24 0.0 15.3 29.80 0
2017 2017-03-25 50.2 39.0 60.1 48 0.0 15.4 29.93 1
2018 2018-03-25 49.3 39.0 57.9 27 0.0 16.8 29.80 0
2019 2019-03-25 51.8 33.1 71.1 37 0.0 12.0 30.10 0
2020 2020-03-25 50.9 45.0 60.1 34 0.0 18.9 29.86 1
2021 2021-03-25 42.1 34.0 48.9 43 0.0 20.4 29.72
2022 2022-03-25 58.6 39.0 79.0 27 0.0 9.8 30.02 0
2023 2023-03-25 38.7 28.0 50.0 52 0.0 10.7 29.95 3
2024 2024-03-25 38.7 28.0 51.1 70 12.6 29.72 2
2025 2025-03-25 61.9 42.1 81.0 25 0.0 8.2 29.98 0
Average Low 36.1
Average High 64.2

Daily High / Low by Year (03/25)

Barometric Pressure by Year (03/25)

Weather data provided by Meteostat